Retour au catalogue

KUIPER-00603

ActifCommunicationsLEO
NORAD 69287·PAYLOAD·🇺🇸 United States

Lancé May 29, 2026 depuis Vandenberg Space Force Base

Loading…

Prochains Passages (prochaines 24 heures)

TLE

FraisSource: CelesTrak SupGP

Époque: Sep 15, 2026, 04:10 UTC

1 69287C 26118W   26258.17407407 -.00013009  00000+0 -17029-2 0  2586
2 69287  51.9046 357.7497 0000490  94.3939 153.6454 14.79943901    17

Suivez KUIPER-00603 en temps réel avec AllMySat

Download on the App Store